Weather History for Valdosta Regional, GA

Change the Weather History Date:

Tuesday, November 20, 2012

  Actual Average Record
Temperature  
Mean Temperature 64 °F 59 °F  
Max Temperature 75 °F 71 °F 84 °F (2011)
Min Temperature 53 °F 46 °F 30 °F (2008)
Degree Days  
Heating Degree Days 1 7  
Month to date heating degree days 94 104  
Since 1 July heating degree days 125 147  
Growing Degree Days 13 (Base 50)    
Moisture  
Dew Point 51 °F    
Average Humidity 62    
Maximum Humidity 83    
Minimum Humidity 41    
Precipitation  
Precipitation 0.00 in 0.08 in 1.38 in (2005)
Month to date precipitation 0.45 1.58  
Year to date precipitation 39.95 46.45  
Sea Level Pressure  
Sea Level Pressure 30.13 in    
Wind  
Wind Speed 3 mph (NNE)    
Max Wind Speed 16 mph    
Max Gust Speed 21 mph    
Visibility 10 miles    
Events      
T = Trace of Precipitation, MM = Missing Value Source: NWS Daily Summary

Daily Weather History Graph

Daily Weather History Graph

Search for Another Location

Airport:

Trip Planner

Search our weather history database for the weather conditions in past years. The results will help you decide how hot, cold, wet, or windy it might be!

Date:

Astronomy

Nov. 20, 2012 Rise Set
Actual Time 7:04 AM EST 5:33 PM EST
Civil Twilight 6:38 AM EST 5:59 PM EST
Nautical Twilight 6:09 AM EST 6:28 PM EST
Astronomical Twilight 5:40 AM EST 6:57 PM EST
Moon 12:51 PM EST (11/20) No Moon Set
Length of Visible Light 11h 20m
Length of Day
10h 29m
Waxing Crescent, 51% of the Moon is Illuminated
Nov 20
Waxing Crescent
Nov 28
Full
Dec 6
Last Quarter
Dec 13
New
Dec 20
First Quarter

Hourly Weather History & Observations

Time (EST) Temp. Dew Point Humidity Pressure Visibility Wind Dir Wind Speed Gust Speed Precip Events Conditions
12:53 AM 57.0 °F 51.1 °F 81% 30.16 in 10.0 mi Calm Calm - N/A   Overcast
1:53 AM 59.0 °F 53.1 °F 81% 30.14 in 10.0 mi North 3.5 mph - N/A   Overcast
2:53 AM 60.1 °F 52.0 °F 75% 30.14 in 10.0 mi Calm Calm - N/A   Overcast
3:53 AM 60.1 °F 52.0 °F 75% 30.14 in 10.0 mi North 4.6 mph - N/A   Overcast
4:53 AM 60.1 °F 52.0 °F 75% 30.15 in 10.0 mi NNE 4.6 mph - N/A   Overcast
5:53 AM 54.0 °F 48.9 °F 83% 30.16 in 10.0 mi Calm Calm - N/A   Clear
6:53 AM 53.1 °F 48.9 °F 86% 30.17 in 6.0 mi Calm Calm - N/A   Mostly Cloudy
7:53 AM 57.9 °F 51.1 °F 78% 30.17 in 10.0 mi NE 4.6 mph - N/A   Mostly Cloudy
8:53 AM 63.0 °F 50.0 °F 63% 30.19 in 10.0 mi NE 8.1 mph - N/A   Scattered Clouds
9:53 AM 64.9 °F 50.0 °F 58% 30.19 in 10.0 mi NE 4.6 mph - N/A   Overcast
10:53 AM 70.0 °F 50.0 °F 49% 30.19 in 10.0 mi NNE 10.4 mph - N/A   Mostly Cloudy
11:53 AM 72.0 °F 50.0 °F 46% 30.15 in 10.0 mi NNE 10.4 mph 19.6 mph N/A   Scattered Clouds
12:53 PM 73.9 °F 48.9 °F 41% 30.11 in 10.0 mi North 11.5 mph 20.7 mph N/A   Scattered Clouds
1:53 PM 73.9 °F 48.9 °F 41% 30.10 in 10.0 mi North 11.5 mph - N/A   Mostly Cloudy
2:53 PM 71.1 °F 50.0 °F 47% 30.07 in 10.0 mi Variable 3.5 mph - N/A   Overcast
3:53 PM 70.0 °F 51.1 °F 51% 30.08 in 10.0 mi Variable 4.6 mph - N/A   Overcast
4:53 PM 68.0 °F 51.1 °F 55% 30.08 in 10.0 mi Calm Calm - N/A   Partly Cloudy
5:53 PM 64.9 °F 51.1 °F 61% 30.09 in 10.0 mi Calm Calm - N/A   Clear
6:53 PM 63.0 °F 51.1 °F 65% 30.10 in 10.0 mi Calm Calm - N/A   Scattered Clouds
7:53 PM 61.0 °F 52.0 °F 72% 30.11 in 10.0 mi Calm Calm - N/A   Partly Cloudy
8:53 PM 57.0 °F 50.0 °F 77% 30.12 in 10.0 mi Calm Calm - N/A   Clear
9:53 PM 55.9 °F 50.0 °F 80% 30.13 in 10.0 mi Calm Calm - N/A   Clear
10:53 PM 55.9 °F 48.9 °F 77% 30.12 in 10.0 mi Calm Calm - N/A   Clear
11:53 PM 55.0 °F 51.1 °F 86% 30.11 in 10.0 mi Calm Calm - N/A   Partly Cloudy